Simultaneous Nadir Overpasses (SNOs) Predictions

Prediction of SNOs between AQUA and NPP Satellite Orbit:

Table of predicted SNOs for the next 14.0 days since TLE Epoch: 3/9/2024
Index Date (AQUA) Time (AQUA) Lat,Lon (AQUA) SZA (AQUA ) Date (NPP) Time (NPP) Lat,Lon (NPP) SZA (NPP ) Distance(km) Time Diff (sec)
1 03/09/2024 13:43:37 -81.17, 74.51 87.09 03/09/2024 13:43:23 -81.17, 74.41 87.07 1.64 14
2 03/09/2024 14:32:59 81.18,-117.72 92.88 03/09/2024 14:34:07 81.18,-117.88 92.87 2.83 68
3 03/12/2024 02:37:43 -81.16,-119.11 88.09 03/12/2024 02:37:22 -81.16,-119.24 88.06 2.20 21
4 03/12/2024 03:27:04 81.19, 49.00 91.84 03/12/2024 03:28:05 81.19, 48.83 91.82 2.92 61
5 03/14/2024 15:31:47 -81.17, 47.57 89.13 03/14/2024 15:31:20 -81.17, 47.44 89.10 2.37 27
6 03/14/2024 16:21:08 81.20,-144.36 90.80 03/14/2024 16:22:03 81.19,-144.51 90.79 2.74 55
7 03/17/2024 04:25:49 -81.18,-145.81 90.17 03/17/2024 04:25:17 -81.17,-145.93 90.13 2.17 32
8 03/17/2024 05:15:10 81.20, 22.22 89.77 03/17/2024 05:16:00 81.19, 22.10 89.75 2.20 50
9 03/19/2024 17:19:51 -81.18, 20.73 91.20 03/19/2024 17:19:15 -81.18, 20.65 91.16 1.53 36
10 03/19/2024 18:09:12 81.20,-171.27 88.74 03/19/2024 18:09:58 81.20,-171.34 88.73 1.29 46
11 03/22/2024 06:13:52 -81.18,-172.79 92.22 03/22/2024 06:13:13 -81.18,-172.82 92.19 0.47 39



Historial Predications of SNOs between AQUA and NPP
